Regional Weather Roundup
Issued by NWS

Home | Current Version | Previous Version | Text Only | Print | Product List | Glossary On
Versions: 1 2 3 4 5 6 7 8 9 10 11 12 13 14 15 16 17 18 19 20 21 22 23 24 25 26 27 28 29 30 31 32 33 34 35 36 37 38 39 40 41 42 43 44 45 46 47 48 49 50
000
ASUS43 KDMX 192301
RWRIA

WEATHER ROUNDUP FOR IOWA
NATIONAL WEATHER SERVICE DES MOINES IA
600 PM CDT THU OCT 19 2017

NOTE: "FAIR" INDICATES FEW OR NO CLOUDS BELOW 12,000 FEET WITH NO
SIGNIFICANT WEATHER AND/OR OBSTRUCTIONS TO VISIBILITY.

* - THESE STATIONS ARE NOT NWS STATIONS...THUS NOT UNDER NWS
QUALITY CONTROL.  THEY ALSO DO NOT REPORT WEATHER SUCH
AS PRECIPITATION OR FOG.

IAZ001>003-012>014-020>022-031>034-043>046-200000-
   NORTHWEST IOWA

CITY           SKY/WX    TMP DP  RH WIND       PRES   REMARKS
CARROLL *      CLEAR     91  75  59 S9        29.99S HAZE    HX 102
CHEROKEE *     CLEAR     71  52  51 S7        29.96S
DENISON *      CLEAR     73  54  49 S9        29.99S
LE MARS *      CLEAR     73  50  43 S12       29.93F
ORANGE CITY *  CLEAR     73  52  46 S9        29.94F
SHELDON *      CLEAR     72  46  40 S9G16     29.92F
SIOUX CITY     CLEAR     73  53  49 S9        29.94F
SPENCER        CLEAR     70  48  45 S10       29.96F
STORM LAKE *   CLEAR     72  50  46 S12       29.97F
$$

IAZ055>058-069>071-079>083-090>094-200000-
   SOUTHWEST IOWA

CITY           SKY/WX    TMP DP  RH WIND       PRES   REMARKS
ATLANTIC *     CLEAR     75  54  46 S8        29.99S
AUDUBON *      CLEAR     73  55  53 S6        30.01S
CLARINDA *     CLEAR     75  52  43 S9        30.03S
COUNCIL BLFS * CLEAR     73  57  56 S9        29.98S
CRESTON *      CLEAR     73  54  49 S8        30.04S
HARLAN  *      CLEAR     75  52  43 S7        30.02S
LAMONI         CLEAR     73  53  49 S9        30.05S
RED OAK *      CLEAR     77  54  44 S9        30.00S
SHENANDOAH *   CLEAR     77  52  41 S8        30.00S
$$

IAZ047>049-059>061-072>074-084-200000-
   CENTRAL IOWA

CITY           SKY/WX    TMP DP  RH WIND       PRES   REMARKS
AMES           CLEAR     70  55  59 S7        30.02S
ANKENY *       CLEAR     72  55  56 MISG      30.03S
BOONE *        CLEAR     72  52  49 S9        30.01S
CHARITON *     CLEAR     73  55  53 S12       30.05R
DES MOINES     PTCLDY    74  55  51 SE9       30.02S
KNOXVILLE *    CLEAR     73  54  49 SE7       30.03S
MARSHALLTOWN   CLEAR     71  52  50 SE12      30.03S
NEWTON *       CLEAR     72  54  53 SE9G15    30.05R
PELLA *        CLEAR     73  54  51 SE6       30.06S
PERRY *          N/A     73  51  44 SE7       30.01S
$$

IAZ004>006-015-016-023>025-035-036-200000-
   NORTH CENTRAL IOWA

CITY           SKY/WX    TMP DP  RH WIND       PRES   REMARKS
ALGONA *       CLEAR     70  46  43 S12       29.99S
CLARION *      CLEAR     70  46  43 S9        30.01S
ESTHERVILLE    CLEAR     68  45  43 S9        29.96F
FORT DODGE *   CLEAR     71  48  43 SE7       30.00F
MASON CITY     CLEAR     66  39  37 SE10      30.03F
FOREST CITY *    N/A     66  43  42 S8        30.01S
WEBSTER CITY * CLEAR     72  48  43 S8        30.00S
IOWA FALLS *     N/A     71  47  41 SE7       30.04S
$$

IAZ007>011-017>019-026>030-037>042-050>054-066-200000-
   NORTHEAST IOWA

CITY           SKY/WX    TMP DP  RH WIND       PRES   REMARKS
CEDAR RAPIDS   CLOUDY    71  49  45 SE7       30.07S
CHARLES CITY * CLEAR     66  36  32 SE8       30.05F
CLINTON *      CLEAR     67  44  43 SE7       30.11F
DECORAH *      CLEAR     66  34  30 S8        30.06F
DUBUQUE        CLEAR     64  36  35 SE7       30.11F
MONTICELLO *   CLOUDY    68  39  34 SE7       30.09S
OELWEIN *      CLEAR     66  39  37 SE7       30.08S
WATERLOO       CLEAR     66  39  37 SE8       30.05S
$$

IAZ064-065-067-068-078-200000-
   EAST CENTRAL IOWA

CITY           SKY/WX    TMP DP  RH WIND       PRES   REMARKS
DAVENPORT      CLEAR     68  48  48 SE6       30.12S
IOWA CITY      CLOUDY    71  53  52 SE8       30.08F
MUSCATINE *    CLEAR     73  52  46 SE6       30.08F
QUAD CITIES    CLEAR     70  51  51 SE5       30.10R
$$

IAZ062-063-075>077-085>089-095>099-200000-
   SOUTHEAST IOWA

CITY           SKY/WX    TMP DP  RH WIND       PRES   REMARKS
BURLINGTON     CLEAR     70  56  61 S5        30.09S
FAIRFIELD *    CLEAR     70  54  56 SE8       30.07S
FORT MADISON * CLEAR     72  55  56 S5        30.10S
KEOKUK *       CLEAR     73  54  49 S6        30.09S
OSKALOOSA *      N/A     71  54  55 S9        30.06F
OTTUMWA        CLEAR     70  55  59 SE7       30.05F
WASHINGTON *   CLEAR     72  54  53 S8        30.09S
$$

ABBREVIATIONS USED IN REMARKS
   TC - TEMPERATURES IN CELSIUS
  WCI - WIND CHILL INDEX
   HX - HEAT INDEX
  VSB - VISIBILITY
$$





USA.gov is the U.S. government's official web portal to all federal, state and local government web resources and services.